Location: Klickitat County Star Party
(45.8642°N, 120.6771°W)
Time: 20:04:05
(UTC-07:00)

SO-50 - Pass Details

Date: 26 May 2019
Orbit: 586 x 700 km, 64.6° (Epoch: 17 June)

Event Time Altitude Azimuth Distance (km) Brightness Sun altitude
Rises 03:57:01 0° 313° (NW) 3,077 ? -11.9°
Reaches altitude 10° 03:59:44 10° 300° (WNW) 2,144 ? -11.6°
Maximum altitude 04:03:37 24° 247° (WSW) 1,395 ? -11.1°
Enters shadow 04:07:11 11° 196° (SSW) 2,019 ? -10.7°
